TimePDT,TemperatureF,Dew PointF,Humidity,Sea Level PressureIn,VisibilityMPH,Wind Direction,Wind SpeedMPH,Gust SpeedMPH,PrecipitationIn,Events,Conditions,WindDirDegrees,DateUTC
12:10 AM,46.4,33.8,62,30.06,10.0,West,5.8,-,N/A,,Clear,270,2013-05-24 07:10:00
12:30 AM,44.6,33.8,66,30.06,10.0,West,5.8,-,N/A,,Clear,280,2013-05-24 07:30:00
12:50 AM,44.6,33.8,66,30.06,10.0,West,5.8,-,N/A,,Clear,270,2013-05-24 07:50:00
1:10 AM,42.8,33.8,70,30.06,10.0,West,5.8,-,N/A,,Clear,270,2013-05-24 08:10:00
1:30 AM,42.8,33.8,70,30.06,10.0,West,5.8,-,N/A,,Clear,260,2013-05-24 08:30:00
1:50 AM,41.0,32.0,70,30.06,10.0,WSW,3.5,-,N/A,,Clear,250,2013-05-24 08:50:00
2:10 AM,41.0,32.0,70,30.06,10.0,West,4.6,-,N/A,,Clear,270,2013-05-24 09:10:00
2:30 AM,41.0,32.0,70,30.06,10.0,West,4.6,-,N/A,,Clear,280,2013-05-24 09:30:00
2:50 AM,41.0,32.0,70,30.06,10.0,West,4.6,-,N/A,,Clear,260,2013-05-24 09:50:00
3:10 AM,39.2,32.0,75,30.06,10.0,West,5.8,-,N/A,,Clear,270,2013-05-24 10:10:00
3:30 AM,39.2,32.0,75,30.06,10.0,West,6.9,-,N/A,,Clear,270,2013-05-24 10:30:00
3:50 AM,39.2,32.0,75,30.06,10.0,West,4.6,-,N/A,,Clear,270,2013-05-24 10:50:00
4:10 AM,39.2,32.0,75,30.07,10.0,West,5.8,-,N/A,,Clear,270,2013-05-24 11:10:00
4:30 AM,37.4,32.0,81,30.07,10.0,West,3.5,-,N/A,,Clear,270,2013-05-24 11:30:00
4:50 AM,37.4,32.0,81,30.07,10.0,West,4.6,-,N/A,,Clear,270,2013-05-24 11:50:00
5:10 AM,37.4,32.0,81,30.07,10.0,West,5.8,-,N/A,,Clear,280,2013-05-24 12:10:00
5:30 AM,37.4,32.0,81,30.08,10.0,West,5.8,-,N/A,,Clear,270,2013-05-24 12:30:00
5:50 AM,37.4,32.0,81,30.08,10.0,West,4.6,-,N/A,,Partly Cloudy,270,2013-05-24 12:50:00
6:10 AM,37.4,32.0,81,30.09,10.0,West,4.6,-,N/A,,Mostly Cloudy,270,2013-05-24 13:10:00
6:30 AM,37.4,32.0,81,30.09,10.0,West,3.5,-,N/A,,Scattered Clouds,260,2013-05-24 13:30:00
6:50 AM,39.2,32.0,75,30.09,10.0,Calm,Calm,-,N/A,,Scattered Clouds,0,2013-05-24 13:50:00
7:10 AM,41.0,33.8,76,30.09,10.0,Calm,Calm,-,N/A,,Mostly Cloudy,0,2013-05-24 14:10:00
7:30 AM,42.8,35.6,76,30.09,10.0,Calm,Calm,-,N/A,,Partly Cloudy,0,2013-05-24 14:30:00
7:50 AM,44.6,37.4,76,30.09,10.0,Calm,Calm,-,N/A,,Clear,0,2013-05-24 14:50:00
8:10 AM,44.6,37.4,76,30.08,10.0,Calm,Calm,-,N/A,,Clear,0,2013-05-24 15:10:00
8:30 AM,46.4,37.4,71,30.08,10.0,Calm,Calm,-,N/A,,Clear,0,2013-05-24 15:30:00
8:50 AM,46.4,37.4,71,30.07,10.0,East,3.5,-,N/A,,Clear,100,2013-05-24 15:50:00
9:10 AM,48.2,37.4,66,30.07,10.0,East,3.5,-,N/A,,Clear,100,2013-05-24 16:10:00
9:30 AM,50.0,37.4,62,30.07,10.0,East,3.5,-,N/A,,Clear,80,2013-05-24 16:30:00
9:50 AM,50.0,35.6,58,30.06,10.0,SSE,4.6,-,N/A,,Clear,160,2013-05-24 16:50:00
10:10 AM,53.6,37.4,54,30.06,10.0,East,3.5,-,N/A,,Clear,100,2013-05-24 17:10:00
10:30 AM,53.6,37.4,54,30.05,10.0,East,3.5,-,N/A,,Clear,100,2013-05-24 17:30:00
10:50 AM,57.2,39.2,51,30.04,10.0,ESE,3.5,-,N/A,,Clear,110,2013-05-24 17:50:00
11:10 AM,57.2,37.4,48,30.04,10.0,SSE,6.9,-,N/A,,Clear,150,2013-05-24 18:10:00
11:30 AM,59.0,37.4,45,30.03,10.0,SSE,8.1,-,N/A,,Clear,150,2013-05-24 18:30:00
11:50 AM,62.6,35.6,37,30.02,10.0,SSE,9.2,-,N/A,,Clear,160,2013-05-24 18:50:00
12:10 PM,62.6,32.0,32,30.01,10.0,SSE,10.4,-,N/A,,Clear,160,2013-05-24 19:10:00
12:30 PM,64.4,33.8,32,30.01,10.0,South,6.9,-,N/A,,Clear,170,2013-05-24 19:30:00
12:50 PM,66.2,32.0,28,30.00,10.0,SSE,5.8,-,N/A,,Clear,150,2013-05-24 19:50:00
1:10 PM,66.2,32.0,28,30.00,10.0,SSE,8.1,-,N/A,,Clear,150,2013-05-24 20:10:00
1:30 PM,68.0,30.2,24,29.99,10.0,SSE,8.1,-,N/A,,Clear,160,2013-05-24 20:30:00
1:50 PM,68.0,32.0,26,29.98,10.0,SSE,11.5,-,N/A,,Clear,160,2013-05-24 20:50:00
2:10 PM,68.0,28.4,23,29.98,10.0,SSE,10.4,-,N/A,,Clear,160,2013-05-24 21:10:00
2:30 PM,68.0,30.2,24,29.98,10.0,SSW,6.9,16.1,N/A,,Clear,210,2013-05-24 21:30:00
2:50 PM,68.0,28.4,23,29.98,10.0,South,8.1,17.3,N/A,,Clear,180,2013-05-24 21:50:00
3:10 PM,68.0,26.6,21,29.98,10.0,SW,8.1,-,N/A,,Clear,220,2013-05-24 22:10:00
3:30 PM,68.0,24.8,20,29.98,10.0,SW,6.9,-,N/A,,Clear,220,2013-05-24 22:30:00
3:50 PM,68.0,28.4,23,29.97,10.0,SSE,11.5,16.1,N/A,,Clear,160,2013-05-24 22:50:00
4:10 PM,69.8,26.6,20,29.97,10.0,SSE,9.2,-,N/A,,Clear,160,2013-05-24 23:10:00
4:30 PM,69.8,26.6,20,29.97,10.0,South,11.5,-,N/A,,Clear,170,2013-05-24 23:30:00
4:50 PM,68.0,26.6,21,29.96,10.0,South,10.4,17.3,N/A,,Clear,170,2013-05-24 23:50:00
5:10 PM,68.0,24.8,20,29.96,10.0,SSW,12.7,18.4,N/A,,Clear,200,2013-05-25 00:10:00
5:30 PM,68.0,26.6,21,29.96,10.0,South,5.8,-,N/A,,Clear,180,2013-05-25 00:30:00
5:50 PM,68.0,24.8,20,29.96,10.0,South,9.2,-,N/A,,Clear,170,2013-05-25 00:50:00
6:10 PM,66.2,28.4,24,29.96,10.0,South,12.7,-,N/A,,Clear,170,2013-05-25 01:10:00
6:30 PM,66.2,30.2,26,29.96,10.0,South,11.5,-,N/A,,Clear,170,2013-05-25 01:30:00
6:50 PM,66.2,30.2,26,29.96,10.0,South,11.5,-,N/A,,Clear,170,2013-05-25 01:50:00
7:10 PM,64.4,28.4,26,29.96,10.0,South,11.5,-,N/A,,Clear,170,2013-05-25 02:10:00
7:30 PM,64.4,28.4,26,29.97,10.0,Calm,Calm,-,N/A,,Clear,0,2013-05-25 02:30:00
7:50 PM,62.6,28.4,27,29.98,10.0,Calm,Calm,-,N/A,,Clear,0,2013-05-25 02:50:00
8:10 PM,60.8,32.0,34,29.98,10.0,WSW,5.8,-,N/A,,Clear,250,2013-05-25 03:10:00
8:30 PM,59.0,32.0,36,29.99,10.0,Calm,Calm,-,N/A,,Clear,0,2013-05-25 03:30:00
8:50 PM,57.2,32.0,38,29.99,10.0,Calm,Calm,-,N/A,,Clear,0,2013-05-25 03:50:00
9:10 PM,57.2,32.0,38,30.00,10.0,WNW,3.5,-,N/A,,Clear,290,2013-05-25 04:10:00
9:30 PM,55.4,33.8,44,30.01,10.0,WNW,5.8,-,N/A,,Clear,290,2013-05-25 04:30:00
9:50 PM,53.6,35.6,51,30.02,10.0,WNW,6.9,-,N/A,,Clear,290,2013-05-25 04:50:00
10:10 PM,51.8,35.6,54,30.02,10.0,West,4.6,-,N/A,,Clear,280,2013-05-25 05:10:00
10:30 PM,50.0,35.6,58,30.03,10.0,West,5.8,-,N/A,,Clear,270,2013-05-25 05:30:00
10:50 PM,50.0,35.6,58,30.03,10.0,West,5.8,-,N/A,,Clear,280,2013-05-25 05:50:00
11:10 PM,48.2,35.6,62,30.03,10.0,West,5.8,-,N/A,,Clear,280,2013-05-25 06:10:00
11:30 PM,48.2,35.6,62,30.03,10.0,West,5.8,-,N/A,,Clear,270,2013-05-25 06:30:00
11:50 PM,46.4,35.6,66,30.04,10.0,West,5.8,-,N/A,,Clear,270,2013-05-25 06:50:00